User: anonymous   Login
Location: Vancouver
(49.2500°N, 123.1330°W)
Time: 02:48:23
(UTC-07:00)
Language:

CZ-2C R/B - Orbit

View from above orbital plane
View from above orbital plane
View from above satellite
View from above satellite

Ground track
Ground track

The orbit data is extracted from the following two-line orbital elements,

1 28480U 04046B   15212.46167699  .00000042  00000-0  30626-4 0  9992
2 28480 098.1465 343.2590 0143503 091.9342 310.8902 14.25520312556393
Epoch (UTC): 31 July 2015 11:04:48
Eccentricity: 0.0143503
inclination: 98.1465°
perigee height: 703 km
apogee height: 910 km
right ascension of ascending node: 343.2590°
argument of perigee: 91.9342°
revolutions per day: 14.25520312
mean anomaly at epoch: 310.8902°
orbit number at epoch: 55639

The dashed part of the orbit path shows where the satellite is in the earth's shadow,  

DLR